Simultaneous Nadir Overpasses (SNOs) Predictions

Prediction of SNOs between AQUA and GOES-15 Satellite Orbit:

Table of predicted SNOs for the next 14.0 days since TLE Epoch: 5/18/2012
Index Date Time (AQUA) AQUA Lat,Lon GOES-15 Lat,Lon Distance(km) Time Diff (sec)
1 05/19/2012 22:35:24 0.12,-134.92 0.03,-135.46 60.70 80
2 05/21/2012 22:23:11 0.80,-131.97 0.03,-135.47 398.27 80
3 05/22/2012 10:44:26 0.29,-137.13 -0.05,-135.46 188.91 80
4 05/24/2012 10:32:11 -0.30,-134.15 -0.05,-135.46 148.11 80
5 05/24/2012 22:53:34 -0.77,-139.35 0.07,-135.46 442.14 80
6 05/26/2012 10:19:57 -0.96,-131.19 -0.05,-135.45 484.70 80
7 05/26/2012 22:41:20 -0.15,-136.38 0.06,-135.46 105.54 80
8 05/28/2012 22:29:05 0.48,-133.41 0.06,-135.44 230.65 80
9 05/29/2012 10:50:19 0.60,-138.57 -0.08,-135.44 356.56 80
10 05/31/2012 10:38:04 -0.05,-135.61 -0.08,-135.42 21.24 80




NCC Satellite Simultaneous Nadir Overpasses (SNOs) Prediction Service
